Volver al catálogo

ONEWEB-0307

ActivoComunicacionesPO
NORAD 49189·PAYLOAD·🇬🇧 United Kingdom

Lanzado Sep 14, 2021 desde Baikonur Cosmodrome

Loading…

Próximos Pases (próximas 24 horas)

TLE

ActualizadoSource: CelesTrak SupGP

Época: Sep 14, 2026, 12:45 UTC

1 49189C 21083D   26257.53178657  .00003668  00000+0  10058-1 0  2573
2 49189  87.8913 302.4592 0001952 101.2488 333.7883 13.13462057    13

Sigue ONEWEB-0307 en tiempo real con AllMySat

Download on the App Store